Location: Naloco
(16.5478°S, 37.1017°E)
Time: 01:03:38
(UTC+00:00)

Cosmos 1939 Rocket - Pass Details

Date: 13 August 2020
Orbit: 533 x 584 km, 97.4° (Epoch: 23 September)

Event Time Altitude Azimuth Distance (km) Brightness Sun altitude
Rises 15:39:42 0° 145° (SE) 2,711 5.9 -4.8°
Reaches altitude 10° 15:42:25 10° 125° (SE) 1,805 4.9 -5.5°
Maximum altitude 15:45:03 17° 82° (E) 1,382 4.3 -6.1°
Drops below altitude 10° 15:47:39 10° 39° (NE) 1,781 5.2 -6.7°
Sets 15:50:18 0° 19° (NNE) 2,661 6.3 -7.3°
